Location: Unspecified
(0.0000°N, 0.0000°E)
Time: 10:36:31
(UTC+00:00)

RS-15 - Pass Details

Date: 17 December 2017
Orbit: 1890 x 2154 km, 64.8° (Epoch: 22 June)

Event Time Altitude Azimuth Distance (km) Brightness Sun altitude
Exits shadow 02:28:27 23° 207° (SSW) 3,332 9.2 -46.3°
Drops below altitude 10° 02:32:44 10° 189° (S) 4,273 10.0 -45.4°
Sets 02:36:31 0° 179° (S) 5,273 10.6 -44.6°
